Location: ??
(35.5052°N, 139.7262°E)
Time: 02:17:34
(UTC+00:00)

CZ-2C R/B - Pass Details

Date: 20 June 2021
Orbit: 389 x 579 km, 35.0° (Epoch: 26 July)

Event Time Altitude Azimuth Distance (km) Brightness Sun altitude
Exits shadow 17:56:34 23° 179° (S) 954 2.2 -15.3°
Maximum altitude 17:57:17 25° 158° (SSE) 898 2.2 -15.2°
Drops below altitude 10° 18:00:07 10° 100° (E) 1,481 4.0 -14.8°
Sets 18:02:24 0° 87° (E) 2,317 5.3 -14.5°
